Regional Weather Roundup
Issued by NWS

Home | Current Version | Previous Version | Text Only | Print | Product List | Glossary On
Versions: 1 2 3 4 5 6 7 8 9 10 11 12 13 14 15 16 17 18 19 20 21 22 23 24 25 26 27 28 29 30 31 32 33 34 35 36 37 38 39 40 41 42 43 44 45 46 47 48 49 50
587
ASUS43 KLSX 251407
RWRMO

WEATHER SUMMARY FOR MISSOURI
NATIONAL WEATHER SERVICE SPRINGFIELD MO
900 AM CDT SAT MAR 25 2017

NOTE: "FAIR" INDICATES FEW OR NO CLOUDS BELOW 12,000 FEET WITH NO
       SIGNIFICANT WEATHER AND/OR OBSTRUCTIONS TO VISIBILITY.
       CURRENT SKY AND/OR WEATHER CONDITIONS ARE NOT AVAILABLE FOR
       CHILLICOTHE AND FARMINGTON.

MOZ001>031-035>038-043-044-053-054-251500-
...NORTHERN AND WESTERN MISSOURI...

CITY           SKY/WX    TMP DP  RH WIND       PRES   REMARKS
KANSAS CTY INT PTSUNNY   55  54  96 N7        29.82R FOG
KANSAS C DTWN  CLOUDY    55  52  89 E5        29.81R
LEE`S SUMMIT   LGT RAIN  53  50  89 NE3       29.81R
ST JOSEPH      CLOUDY    49  49 100 N16       29.86R
CHILLICOTHE      N/A     52  52 100 N10G18    29.83R
KIRKSVILLE     CLOUDY    52  52 100 NE13      29.83R FOG

$$
MOZ066>068-077>081-088>096-101>105-251500-
...SOUTHWEST MISSOURI...

CITY           SKY/WX    TMP DP  RH WIND       PRES   REMARKS
SPRINGFIELD    LGT RAIN  53  52  96 S8        29.79R
JOPLIN         CLOUDY    50  49  96 NW13      29.82R
BRANSON        HVY RAIN  52  52 100 N5        29.80S VSB 1

$$
MOZ032>034-039>042-045>050-055>058-069>072-251500-
...CENTRAL MISSOURI...

CITY           SKY/WX    TMP DP  RH WIND       PRES   REMARKS
COLUMBIA       PTSUNNY   55  53  93 SE6       29.82R
JEFFERSON CITY MOSUNNY   57  52  83 E9        29.82R
ROLLA          PTSUNNY   54  53  97 S12       29.82R
SEDALIA        CLOUDY    53  51  93 NW6       29.83R
WHITEMAN AFB   CLOUDY    53  53 100 E6        29.80R
WARRENSBURG    CLOUDY    52  48  87 NE5       29.81R
OSAGE BEACH    MOSUNNY  N/A N/A N/A S9        29.81S

$$
MOZ051-052-059>065-251500-
...EAST CENTRAL MISSOURI...

CITY           SKY/WX    TMP DP  RH WIND       PRES   REMARKS
ST LOUIS INTL  CLOUDY    59  53  80 SE13      29.86R
SPIRIT OF STL  CLOUDY    57  53  86 VRB3      29.84R
ST CHARLES     CLOUDY    58  55  90 SE6       29.86R

$$
MOZ072>076-082>087-097>100-106>115-251500-
...SOUTH CENTRAL AND SOUTHEAST MISSOURI...

CITY           SKY/WX    TMP DP  RH WIND       PRES   REMARKS
CAPE GIRARDEAU CLOUDY    57  54  89 SE9       29.91F
FARMINGTON     CLOUDY    56  53  90 S15G21    29.88R
POPLAR BLUFF   CLOUDY    56  55  97 SE7       29.91S
WEST PLAINS    LGT RAIN  56  54  93 S13       29.84R FOG

$$



USA.gov is the U.S. government's official web portal to all federal, state and local government web resources and services.